Snowfall_Accumulation
0.0 0.0 0.0 0.0 0.0 0.0 0.0 0.0 0.0 0.0 0.0 0.0 0.0 0.0 0.0 0.0 0.0 0.0 0.0 0.0 0.0 0.0 0.0 0.0 0.0 0.0 0.0 0.0 0.0 0.0 0.0 0.0 0.0 0.0 0.0 0.0 0.0 0.0
0.0 0.0 0.0 0.0 0.0 0.0 0.0 0.0 0.0 0.0 0.0 0.0 0.0 0.0 0.0 0.0 0.0 0.0 0.0 0.0 0.0 0.0 0.0 0.0 0.0 0.0 0.0 0.0 0.0 0.0 0.0 0.0 0.0 0.0 0.0 0.0 0.0 0.0
0.0 0.0 0.0 0.0 0.0 0.0 0.0 0.0 0.2 0.9 0.0 0.4 0.2 1.1 0.5 0.0 0.0 0.0 0.0 0.0 0.0 0.1 0.0 0.0 0.0 0.0 0.0 0.1 0.0 0.0 0.0 0.0 0.0 0.0 0.0 0.0 0.0 0.0
0.0 0.0 0.0 0.0 0.0 0.0 0.0 0.4 1.0 0.5 0.4 1.5 0.8 0.6 0.3 0.0 0.0 0.0 0.0 0.2 0.1 0.0 0.0 0.0 0.0 0.0 0.0 0.0 0.0 0.3 0.1 0.0 0.0 0.0 0.0 0.0 0.0 0.0
0.0 0.0 0.0 0.0 0.1 0.0 1.5 0.8 0.3 1.3 1.1 1.2 0.5 0.0 0.2 1.0 0.1 0.0 0.0 0.0 0.0 0.0 0.0 0.0 0.0 0.0 0.0 0.1 0.2 0.3 0.5 0.6 0.4 0.0 0.0 0.0 0.0 0.0
0.0 0.0 0.0 0.6 0.3 0.9 0.6 1.1 0.8 1.0 0.5 0.6 0.9 0.8 0.5 0.1 0.3 0.0 0.0 0.0 0.0 0.0 0.0 0.0 0.0 0.0 0.0 0.0 0.0 0.0 0.0 0.0 0.0 0.0 0.1 0.1 0.1 0.0
0.1 2.2 1.8 1.7 1.1 1.6 1.2 0.6 0.7 0.4 2.0 3.7 2.8 2.6 0.2 0.0 0.0 0.0 0.0 0.0 0.3 0.0 0.0 0.0 0.0 0.0 0.0 0.0 0.0 0.0 0.0 0.0 0.2 0.5 0.3 0.6 0.9 0.3
3.0 2.7 1.6 1.0 0.5 0.0 0.1 0.4 0.6 1.7 3.9 5.5 3.8 0.9 0.0 0.1 0.1 0.4 2.6 2.4 1.7 0.0 0.0 0.2 0.0 0.0 0.0 0.0 0.0 0.1 0.2 0.1 0.1 0.2 0.5 0.8 0.6 0.5
1.7 1.1 1.0 0.3 0.4 0.3 0.0 0.4 1.8 2.9 2.9 1.3 1.2 0.7 0.8 0.3 3.5 4.3 2.8 3.2 2.0 0.0 0.4 0.5 0.1 0.0 0.0 0.0 0.0 0.0 0.0 0.1 0.2 0.4 0.6 0.8 0.9 0.6
0.5 0.2 0.0 0.1 0.1 0.4 0.6 3.2 1.7 0.1 0.0 0.1 0.3 0.8 1.8 1.8 2.0 1.7 1.9 1.4 1.1 0.1 0.2 3.2 0.1 0.1 0.0 0.0 0.0 0.0 0.0 0.1 0.5 1.1 0.6 0.5 0.6 0.8
0.0 0.0 0.3 0.2 0.1 1.1 3.5 2.2 0.2 0.2 0.0 0.0 0.8 0.6 0.1 0.0 0.0 1.9 4.7 6.2 3.6 0.2 0.0 1.6 0.6 0.3 0.1 0.0 0.0 0.0 0.0 0.8 0.3 0.3 0.7 0.8 0.9 0.8
0.0 0.2 0.1 0.3 0.7 4.4 1.9 1.0 1.0 0.3 1.1 0.9 0.1 0.0 0.0 0.0 0.1 0.5 5.7 12.6 6.9 3.4 0.0 4.6 1.4 1.9 5.3 0.0 0.1 0.0 0.0 0.0 0.0 0.3 0.4 0.9 1.1 1.4
0.9 0.1 0.0 0.3 2.9 1.0 1.2 1.1 0.8 0.4 0.6 0.5 0.2 0.1 0.0 0.0 0.3 0.2 2.0 9.8 13.9 8.5 0.0 10.4 10.1 3.1 8.6 4.0 2.1 2.5 1.9 1.8 2.0 2.5 4.0 2.7 2.8 3.1
0.4 0.4 0.5 2.9 0.1 0.2 0.5 0.6 0.7 0.7 0.9 1.0 1.1 0.6 0.2 0.3 0.2 0.3 0.5 1.8 3.9 8.1 3.2 4.6 16.7 6.8 11.7 9.0 4.9 4.9 4.3 6.6 8.3 8.2 10.2 4.2 2.6 2.3
0.9 1.8 1.7 0.4 0.4 0.4 0.2 0.1 0.6 0.6 0.7 2.5 1.5 0.7 0.2 0.1 0.4 0.5 0.8 1.3 1.7 2.5 3.3 3.8 8.4 8.5 12.0 12.2 7.5 4.4 6.6 7.1 8.3 9.4 8.3 8.6 6.8 4.7
2.3 2.2 0.8 0.5 0.2 0.3 0.6 0.4 0.4 0.4 1.7 2.9 2.5 0.7 0.1 0.4 0.8 1.2 3.9 3.1 4.7 2.6 3.6 4.2 5.7 8.1 9.8 6.6 7.9 6.6 7.2 10.2 8.9 9.1 8.2 10.5 3.8 2.6
4.0 3.0 2.0 1.1 0.5 0.6 0.8 0.5 0.4 0.1 0.9 0.8 2.1 1.9 0.8 0.8 2.9 3.0 5.1 8.7 12.2 6.6 6.9 6.0 5.2 3.2 4.3 6.5 8.1 6.2 6.9 7.3 10.5 10.3 8.6 11.3 7.8 2.1
3.9 3.6 2.9 2.2 1.9 0.9 1.2 1.2 0.8 0.6 0.9 2.1 3.0 2.1 5.4 5.2 7.1 7.7 9.8 12.1 12.4 8.7 9.0 7.8 7.4 8.4 7.5 7.0 7.3 10.3 9.3 10.3 11.9 10.0 8.9 9.8 10.1 7.1
3.8 2.9 2.6 1.7 1.8 1.2 1.3 1.4 2.1 1.1 2.0 3.4 4.6 5.5 8.4 7.4 8.7 8.4 9.4 10.6 10.7 7.4 6.8 5.2 7.8 12.4 15.0 7.1 5.6 8.0 15.6 13.1 10.6 10.0 7.3 7.2 10.0 10.1
2.0 2.6 2.4 1.8 1.6 2.1 2.3 2.9 3.3 2.0 4.2 4.6 7.4 7.4 9.5 11.7 10.4 9.4 8.7 10.9 11.1 7.1 5.3 3.6 4.3 9.8 19.9 15.0 11.3 7.6 9.4 12.1 11.3 11.6 10.1 8.2 8.9 2.9
2.5 2.2 1.4 1.7 1.6 3.3 4.2 5.6 4.8 7.7 9.4 10.9 10.2 10.9 9.7 14.3 11.2 7.9 9.1 9.0 8.9 7.7 7.4 2.3 1.8 4.8 8.8 11.8 12.1 5.4 6.7 7.0 5.8 10.8 10.3 10.8 7.3 4.9
2.4 2.7 1.7 2.0 4.8 5.7 8.0 7.7 10.6 9.1 9.9 10.4 9.6 10.1 10.6 12.4 13.4 9.9 9.3 9.3 6.8 6.4 6.5 3.8 5.4 7.6 9.1 11.1 7.7 4.1 3.7 4.6 5.2 4.3 4.3 7.6 14.0 15.7
3.7 4.5 5.1 4.4 6.2 7.4 9.5 10.4 10.0 8.8 9.0 10.3 11.5 11.4 11.4 12.3 8.1 8.3 10.0 9.0 10.0 11.9 8.8 8.5 6.4 6.3 7.6 8.5 7.7 6.5 4.1 3.5 4.5 4.7 5.9 4.4 3.9 4.2